[[{"header":{"parameterUnit":"m.s-1","parameterCategory":1,"la1":30.2991,"la2":30.254,"lo1":-89.0895,"lo2":-89.0444,"dy":0.0017,"dx":0.0017,"nx":28,"ny":28,"refTime":"2025-07-28T09:00:00:Z","depth":0,"parameterNumber":2,"parameterNumberName":"U-component_of_WINDS"},"data":[0,0,0,0,0,0,0,0,0,0,0,0,0,0,0,0,0,0,0,0,0,0,0,0,0,0,0,0,0,0,0,0,0,0,0,0,0,0,0,0,0,0,0,0,0,0,0,0,0,0,0,0,0,0,0,0,0,0,1.7653,1.7657,0,1.8031,1.8035,1.8039,1.8152,1.815,1.8148,1.8146,1.8549,1.8561,1.8574,0,0,0,0,0,0,0,0,0,0,0,0,0,1.7045,1.7055,1.7653,1.7657,1.7662,1.803,1.8035,1.8041,1.8152,1.815,1.8148,1.8145,1.8545,1.856,1.8575,0,0,0,0,0,0,0,0,0,0,0,0,0,1.7355,1.7059,1.7652,1.7762,1.7775,1.8029,1.8036,1.8042,1.8153,1.815,1.8147,1.8144,1.854,1.8559,1.8577,1.8753,0,0,1.8635,1.8643,0,0,0,0,0,0,0,0,1.7337,1.7377,1.7741,1.7755,1.777,1.8041,1.7969,1.8281,1.8154,1.801,1.8146,1.8143,1.8384,1.8415,1.8493,1.8772,1.879,1.8637,1.8648,1.8656,1.8661,0,0,0,0,0,0,0,1.7315,1.7361,1.7803,1.7746,1.7764,1.7798,1.7839,1.8029,1.821,1.8022,1.8031,1.8074,1.8391,1.8475,1.8503,1.8796,1.8636,1.8653,1.8664,1.8672,1.9242,1.9245,0,0,0,0,0,0,1.7273,1.7343,1.7791,1.7814,1.7541,1.7811,1.7857,1.7957,1.8208,1.8243,1.8076,1.8077,1.8444,1.8481,1.8518,1.8742,1.8656,1.8674,1.8685,1.9238,1.9242,1.9247,0,0,0,0,0,0,1.7259,1.7312,1.7776,1.7581,1.7643,1.7825,1.7937,1.7966,1.805,1.8248,1.8282,1.8127,1.8443,1.8492,1.8694,1.8757,1.8682,1.8699,1.9233,1.9239,1.9244,1.9189,0,0,0,0,0,0,1.7241,1.7306,1.7371,1.7581,1.7652,1.7939,1.7941,1.7976,1.808,1.8086,1.8305,1.8338,1.8444,1.8665,1.8712,1.8782,1.8714,1.9228,1.9236,1.9243,1.9186,1.9192,1.9197,0,0,0,0,0,1.7219,1.7343,1.7373,1.7427,1.7736,1.7943,1.7984,1.8099,1.8084,1.8154,1.8282,1.8331,1.8742,1.8684,1.8739,1.8815,1.9225,1.9234,1.9242,1.9183,1.9191,1.9197,0,0,0,0,0,0,1.7141,1.7373,1.7409,1.7604,1.7752,1.7961,1.8051,1.8103,1.8262,1.8262,1.8403,1.8452,1.8644,1.8751,1.8682,1.9,1.8986,1.9006,1.8923,1.8932,1.8937,1.8907,1.873,0,0,0,0,0,1.7145,1.7288,1.7486,1.7639,1.7711,1.7868,1.7962,1.8038,1.8199,1.8264,1.8407,1.8566,1.8732,1.8838,1.9001,1.9203,1.9254,1.9283,1.9288,1.9292,1.9307,1.9424,1.9439,1.9275,1.9275,1.9274,0,0,1.7159,1.7303,1.7385,1.7627,1.775,1.79,1.792,1.8078,1.8192,1.829,1.8487,1.8598,1.8786,1.8988,1.9085,1.9083,1.9364,1.9303,1.9304,1.9318,1.9434,1.945,1.9463,1.928,1.9279,1.9279,0,0,1.7257,1.7379,1.752,1.7643,1.7828,1.7932,1.7966,1.8168,1.8243,1.8442,1.8519,1.8661,1.8942,1.9073,1.9176,1.9325,1.9378,1.9376,1.9405,1.9517,1.953,1.9542,1.9596,1.9614,1.939,1.939,1.939,0,1.7251,1.7473,1.7588,1.774,1.7846,1.7937,1.8084,1.82,1.8431,1.8504,1.8498,1.8853,1.8986,1.9221,1.9257,1.9337,1.9384,1.935,1.9518,1.9531,1.9545,1.9598,1.9618,1.9389,1.9389,1.9389,1.9389,0,1.7457,1.761,1.7703,1.7917,1.8034,1.8183,1.8326,1.8431,1.8497,1.8603,1.8808,1.8971,1.9168,1.923,1.9299,1.9476,1.9469,1.9489,1.9477,1.9556,1.9609,1.9631,1.9386,1.9387,1.9388,1.9388,0,0,1.7516,1.779,1.7823,1.7921,1.8133,1.8257,1.8413,1.8601,1.8689,1.8847,1.8984,1.922,1.9239,1.9356,1.9441,1.9539,1.9648,1.9548,1.9554,1.9561,1.9856,1.9839,1.9861,1.9685,1.9689,1.9693,1.9841,0,1.7641,1.7914,1.8023,1.8248,1.8393,1.8483,1.862,1.8767,1.8871,1.9014,1.9133,1.9297,1.931,1.9381,1.9482,1.9613,1.971,1.9604,1.9817,1.9823,1.9765,1.9888,1.9871,2.0002,1.9862,1.9866,1.9868,0,1.7823,1.7975,1.8212,1.8406,1.8472,1.8591,1.8773,1.8907,1.9079,1.9149,1.9279,1.9357,1.953,1.9507,1.9749,1.9674,1.9769,1.9847,1.9855,1.9879,1.9849,1.9916,2.0047,2.0066,1.9902,1.9899,1.9897,0,1.7841,1.8108,1.8284,1.8366,1.8597,1.8679,1.878,1.8948,1.9054,1.9216,1.9288,1.947,1.9569,1.9711,1.9839,1.981,2.007,2.0057,2.0136,2.0132,2.0185,2.018,2.0333,2.0246,2.0246,2.0246,2.0245,0,1.7969,1.8111,1.8295,1.8403,1.8566,1.8693,1.8854,1.8962,1.9111,1.9246,1.9338,1.9465,1.9626,1.9775,1.9877,2.0063,2.0108,2.0172,2.0198,2.0163,2.0155,2.0227,2.0221,2.0251,2.025,2.0249,2.0248,0,1.8017,1.8145,1.8343,1.8544,1.8598,1.871,1.8885,1.8998,1.9106,1.9276,1.9324,1.9497,1.9677,1.9818,2.0055,2.0124,2.032,2.0349,2.026,2.0273,2.0343,2.0334,2.0547,2.0582,2.0471,2.0472,2.0473,0,1.8088,1.8199,1.8411,1.8504,1.8603,1.8755,1.8862,1.8994,1.9104,1.9308,1.9396,1.9582,1.9736,2.0022,2.0172,2.0355,2.0388,2.0451,2.0417,2.0379,2.039,2.0381,2.0394,2.0454,2.0455,2.0455,2.0455,0,1.8203,1.8261,1.8409,1.8581,1.8705,1.8849,1.8995,1.9069,1.9228,1.9348,1.9529,1.9649,1.9889,2.0073,2.0271,2.0383,2.0448,2.0465,2.0493,2.0458,2.0402,2.0434,2.027,2.0459,2.0459,2.0459,2.0458,2.0458,1.8266,1.8368,1.8532,1.8695,1.8818,1.8952,1.9066,1.9187,1.9339,1.954,1.9611,1.9799,1.9973,2.0244,2.0357,2.0511,2.0515,2.0555,2.0565,2.0573,2.0569,2.0377,2.0548,2.0548,2.0548,2.0548,2.0548,0,1.8384,1.8494,1.8643,1.884,1.897,1.9014,1.9178,1.9286,1.9447,1.9601,1.975,1.9962,2.0142,2.0306,2.0495,2.0586,2.0621,2.0632,2.0626,2.0652,2.0554,2.0511,2.0601,2.0601,2.0601,2.0601,2.0601,2.0601,1.8461,1.8636,1.8714,1.8953,1.9064,1.9243,1.9334,1.946,1.9583,1.9812,1.9959,2.0063,2.0224,2.0425,2.0594,2.0639,2.0705,2.0707,2.076,2.0665,2.0658,2.0651,2.0611,2.0721,2.0721,2.0844,2.0845,2.0846]},{"header":{"parameterUnit":"m.s-1","parameterCategory":1,"la1":30.2991,"la2":30.254,"lo1":-89.0895,"lo2":-89.0444,"dy":0.0017,"dx":0.0017,"nx":28,"ny":28,"refTime":"2025-07-28T09:00:00:Z","depth":0,"parameterNumber":3,"parameterNumberName":"V-component_of_WINDS"},"data":[0,0,0,0,0,0,0,0,0,0,0,0,0,0,0,0,0,0,0,0,0,0,0,0,0,0,0,0,0,0,0,0,0,0,0,0,0,0,0,0,0,0,0,0,0,0,0,0,0,0,0,0,0,0,0,0,0,0,3.8024,3.8028,0,3.84,3.8404,3.8408,3.8445,3.8441,3.8437,3.8434,3.8803,3.8816,3.8829,0,0,0,0,0,0,0,0,0,0,0,0,0,3.7321,3.7334,3.8024,3.8029,3.8033,3.8399,3.8404,3.8409,3.8446,3.8441,3.8436,3.8432,3.8798,3.8814,3.883,0,0,0,0,0,0,0,0,0,0,0,0,0,3.7654,3.7338,3.8023,3.8096,3.8106,3.8398,3.8404,3.841,3.8447,3.8441,3.8435,3.843,3.8793,3.8813,3.8833,3.9072,0,0,3.8894,3.8903,0,0,0,0,0,0,0,0,3.7635,3.768,3.8081,3.8092,3.8104,3.837,3.8292,3.8632,3.8448,3.8317,3.8434,3.8427,3.8662,3.8693,3.8776,3.909,3.9106,3.8896,3.8908,3.8917,3.8922,0,0,0,0,0,0,0,3.7612,3.7664,3.8172,3.8086,3.81,3.8104,3.8145,3.8356,3.8517,3.8328,3.8332,3.8376,3.8667,3.8756,3.8784,3.9111,3.8895,3.8913,3.8926,3.8933,3.9635,3.9641,0,0,0,0,0,0,3.7577,3.7644,3.816,3.8183,3.7851,3.8122,3.8167,3.829,3.8515,3.8544,3.8381,3.8377,3.8725,3.8761,3.8798,3.9092,3.8917,3.8935,3.8947,3.9628,3.9636,3.9643,0,0,0,0,0,0,3.7562,3.7623,3.8145,3.7915,3.7982,3.814,3.8277,3.83,3.839,3.8555,3.8582,3.8444,3.8721,3.8769,3.9004,3.9105,3.8945,3.8963,3.9621,3.9631,3.964,3.9683,0,0,0,0,0,0,3.7542,3.7618,3.7715,3.7917,3.7994,3.8351,3.8284,3.8312,3.8426,3.8424,3.8621,3.8648,3.8721,3.8974,3.9024,3.913,3.8979,3.9612,3.9625,3.9637,3.9673,3.9693,3.971,0,0,0,0,0,3.7517,3.771,3.772,3.7782,3.812,3.8357,3.84,3.8485,3.8434,3.853,3.8636,3.8642,3.9085,3.8997,3.9054,3.9168,3.9606,3.9622,3.9636,3.9665,3.9689,3.9709,0,0,0,0,0,0,3.7512,3.7738,3.7752,3.8017,3.8168,3.8363,3.8488,3.8508,3.8673,3.8664,3.8756,3.88,3.903,3.9122,3.902,3.9409,3.934,3.9366,3.9342,3.9366,3.9384,3.9358,3.8995,0,0,0,0,0,3.7542,3.7721,3.7906,3.8122,3.8197,3.8329,3.8435,3.8487,3.8645,3.8708,3.8831,3.8979,3.9151,3.9263,3.9431,3.9684,3.9725,3.979,3.9808,3.9822,3.9845,3.9981,4.0011,3.9692,3.9692,3.9692,0,0,3.7605,3.7751,3.7858,3.8125,3.8248,3.8425,3.8383,3.8573,3.8704,3.8735,3.8966,3.906,3.9231,3.9475,3.9589,3.9559,3.9941,3.9841,3.9851,3.9867,3.9999,4.003,4.0056,3.9702,3.97,3.9699,0,0,3.7813,3.7942,3.8136,3.826,3.8448,3.8533,3.8579,3.8771,3.8836,3.907,3.9096,3.9248,3.9545,3.9665,3.9765,4.0011,4.0021,4.0062,4.0159,4.0291,4.0316,4.0339,4.0425,4.0455,4.0083,4.0084,4.0084,0,3.7867,3.8142,3.823,3.8422,3.8536,3.8575,3.8767,3.8881,3.9112,3.9187,3.9151,3.9522,3.9639,3.9911,3.9971,4.005,4.0101,4.0042,4.0306,4.033,4.0352,4.0435,4.0467,4.0087,4.0087,4.0087,4.0086,0,3.8198,3.8387,3.8519,3.8747,3.8875,3.9065,3.9177,3.9295,3.9333,3.942,3.9653,3.9795,3.9992,4.0059,4.0097,4.0334,4.0309,4.0288,4.0221,4.0385,4.0464,4.0497,4.0093,4.0091,4.009,4.0089,0,0,3.8418,3.8689,3.8736,3.8838,3.9046,3.9191,3.9378,3.9575,3.9673,3.9828,3.9986,4.0233,4.0214,4.0327,4.0377,4.0493,4.0676,4.0457,4.0462,4.0492,4.0942,4.0957,4.0993,4.0682,4.0689,4.0694,4.0927,0,3.8649,3.8994,3.9076,3.9368,3.9541,3.9577,3.974,3.9881,3.9965,4.0119,4.0209,4.0384,4.0346,4.0414,4.053,4.0629,4.0767,4.0613,4.0825,4.0831,4.0783,4.1035,4.1053,4.1267,4.0959,4.0964,4.0968,0,3.8967,3.9134,3.9444,3.9626,3.9701,3.9848,4.0032,4.018,4.0337,4.039,4.0514,4.0552,4.0742,4.0663,4.0923,4.0816,4.0906,4.0967,4.0977,4.1001,4.0911,4.1065,4.1338,4.1369,4.1018,4.1014,4.101,0,3.9095,3.9396,3.9621,3.9707,3.9924,4.0026,4.012,4.0272,4.0383,4.0541,4.0612,4.0788,4.0884,4.1016,4.1097,4.1032,4.1349,4.1277,4.1394,4.1392,4.1461,4.1456,4.1752,4.1518,4.1517,4.1517,4.1516,0,3.9346,3.9534,3.9682,3.982,4.0029,4.0118,4.032,4.0413,4.0548,4.0699,4.0737,4.0877,4.0976,4.1128,4.1191,4.1395,4.1437,4.1481,4.1496,4.1479,4.1473,4.154,4.1528,4.1525,4.1523,4.1522,4.152,0,3.9527,3.9634,3.9881,4.0066,4.0116,4.0262,4.0418,4.0549,4.0632,4.0823,4.0872,4.1001,4.1181,4.1275,4.1498,4.154,4.1769,4.1774,4.1718,4.1724,4.1835,4.1823,4.2185,4.2236,4.1968,4.197,4.1972,0,3.9682,3.9828,4.0029,4.0136,4.0233,4.0404,4.0518,4.0607,4.0723,4.0911,4.1018,4.1201,4.1353,4.1636,4.1746,4.1915,4.1925,4.2039,4.195,4.1927,4.1925,4.1916,4.1929,4.2056,4.2058,4.206,4.2062,0,3.9944,3.9988,4.0155,4.0338,4.0474,4.0621,4.0765,4.0848,4.096,4.1086,4.1274,4.1391,4.1619,4.1798,4.1975,4.2064,4.208,4.2089,4.2124,4.2109,4.207,4.2091,4.1761,4.2081,4.2079,4.2077,4.2076,4.2076,4.0117,4.0247,4.0409,4.059,4.0709,4.0842,4.0974,4.1074,4.1233,4.143,4.147,4.1667,4.1813,4.2053,4.2146,4.2296,4.2272,4.2324,4.2337,4.2349,4.2353,4.2045,4.2328,4.2328,4.2327,4.2327,4.2327,0,4.038,4.0485,4.0651,4.0854,4.0995,4.1002,4.116,4.1276,4.1451,4.1588,4.1736,4.1947,4.2119,4.2241,4.2414,4.251,4.2521,4.2553,4.2547,4.2566,4.2366,4.2318,4.2541,4.2541,4.254,4.254,4.254,4.254,4.0534,4.0755,4.0817,4.1093,4.1195,4.1392,4.1481,4.1602,4.1712,4.1948,4.2093,4.2172,4.2301,4.2484,4.2639,4.2669,4.2731,4.2762,4.2792,4.2603,4.2581,4.2559,4.2514,4.2774,4.2775,4.2979,4.2981,4.2983]}]]